Home > Time Zones > World Clock > Weather > Spain > Cadiz > Past weeks

Flag for Spain Weather past 2 weeks in Cadiz, Cádiz, Spain

Now
66 °F

Sunny.


Feels Like: 66 °F
Forecast: 56 / 71 °F
Wind: 20 mph from East

Location: Rota Airport

Current Time: Apr 2, 2015 at 10:23:24 AM

Latest Report: Apr 2, 2015 at 10:00 AM


Visibility: 10 mi

Pressure: 30.18 "Hg

Humidity: 43%

Dew point: 43 °F

Location of CadizLocation

Historic Weather in Cadiz — Graph

°F

Cadiz temperature yesterday

Maximum temperature yesterday: 75 °F (at 7:00 PM)
Minimum temperature yesterday: 55 °F (at 7:00 AM)
Average temperature yesterday: 63 °F

Past Weeks' High & Low Weather Summary

 TemperatureHumidityPressure
High75 °F (Mar 28, 1:00 PM)100% (Mar 20, 5:00 AM)30.36 "Hg (Mar 20, 5:00 AM)
Low46 °F (Mar 20, 5:00 AM)32% (Mar 25, 3:00 PM)29.59 "Hg (Mar 24, 7:00 AM)
Average58 °F81%30.00 "Hg
* Reported Mar 18 8:00 AM — Apr 2 9:00 AM, Cadiz, Weather by CustomWeather, © 2015

Note: Actual official high and low records may vary slightly from our data, if they occured in-between our weather recording intervals... More about our weather records

Advertising

Cadiz weather history for previous 24 hours

 ConditionsComfort  
Time TempWeatherWind HumidityBarometerVisibility
9:00 AM
Thu, Apr 2
61 °FClear.12 mph52%30.15 "Hg10 mi
8:00 AM61 °FClear.15 mph52%30.15 "Hg10 mi
7:00 AM61 °FClear.12 mph55%30.12 "Hg10 mi
6:00 AM61 °FClear.12 mph59%30.12 "Hg10 mi
5:00 AM61 °FClear.9 mph63%30.15 "Hg10 mi
4:00 AM61 °FClear.12 mph63%30.15 "Hg10 mi
3:00 AM63 °FClear.12 mph59%30.18 "Hg10 mi
2:00 AM64 °FPassing clouds.5 mph60%30.18 "HgN/A
1:00 AM66 °FPassing clouds.18 mph56%30.18 "HgN/A
12:00 AM66 °FClear.16 mph56%30.18 "Hg10 mi
11:00 PM
Wed, Apr 1
66 °FClear.15 mph56%30.15 "Hg10 mi
10:00 PM68 °FClear.10 mph53%30.15 "Hg10 mi
9:00 PM70 °FPassing clouds.6 mph60%30.15 "HgN/A
8:00 PM70 °FPassing clouds.7 mph69%30.15 "HgN/A
7:00 PM75 °FSunny.6 mph57%30.12 "Hg10 mi
6:00 PM73 °FSunny.2 mph65%30.12 "Hg10 mi
5:00 PM73 °FSunny.2 mph65%30.15 "Hg10 mi
4:00 PM68 °FSunny.1 mph78%30.18 "Hg10 mi
3:00 PM66 °FPassing clouds.3 mph83%30.21 "HgN/A
2:00 PM64 °FPassing clouds.2 mph83%30.21 "HgN/A
1:00 PM63 °FPartly sunny.5 mph94%30.21 "Hg6 mi
12:45 PM61 °FPartly sunny.6 mph94%30.24 "Hg4 mi
12:00 PM59 °FFog.7 mph100%30.21 "Hg1 mi
11:00 AM59 °FDense fog.2 mph100%30.24 "Hg0 mi
10:00 AM61 °FDense fog.9 mph94%30.21 "Hg0 mi
Weather by CustomWeather, © 2015

See weather overviewHow to use our weather pages